TimeCDT,TemperatureF,Dew PointF,Humidity,Sea Level PressureIn,VisibilityMPH,Wind Direction,Wind SpeedMPH,Gust SpeedMPH,PrecipitationIn,Events,Conditions,WindDirDegrees,DateUTC
12:15 AM,77.0,62.6,61,29.75,10.0,South,15.0,27.6,N/A,,Overcast,190,2013-04-10 05:15:00
12:35 AM,75.2,62.6,65,29.74,10.0,South,16.1,24.2,N/A,,Overcast,190,2013-04-10 05:35:00
12:55 AM,75.2,62.6,65,29.73,10.0,South,13.8,23.0,N/A,,Overcast,180,2013-04-10 05:55:00
1:15 AM,75.2,62.6,65,29.74,9.0,South,13.8,20.7,N/A,,Overcast,190,2013-04-10 06:15:00
1:35 AM,75.2,62.6,65,29.74,9.0,SSW,10.4,19.6,N/A,,Overcast,200,2013-04-10 06:35:00
1:55 AM,53.6,46.4,77,29.78,10.0,NW,16.1,25.3,N/A,,Overcast,320,2013-04-10 06:55:00
2:15 AM,51.8,44.6,76,29.78,10.0,NW,16.1,21.9,N/A,,Overcast,320,2013-04-10 07:15:00
2:35 AM,50.0,42.8,76,29.80,10.0,NW,17.3,26.5,N/A,,Overcast,320,2013-04-10 07:35:00
2:55 AM,50.0,44.6,82,29.82,7.0,NW,17.3,24.2,N/A,,Overcast,310,2013-04-10 07:55:00
3:15 AM,48.2,44.6,87,29.83,10.0,NW,11.5,20.7,0.01,,Overcast,320,2013-04-10 08:15:00
3:35 AM,48.2,42.8,82,29.83,10.0,NNW,10.4,-,0.01,,Overcast,330,2013-04-10 08:35:00
3:55 AM,48.2,42.8,82,29.82,8.0,NNW,11.5,-,0.01,Rain,Light Rain,330,2013-04-10 08:55:00
4:15 AM,46.4,42.8,87,29.82,8.0,WNW,8.1,-,N/A,Rain-Thunderstorm,Light Rain,300,2013-04-10 09:15:00
4:35 AM,46.4,42.8,87,29.82,7.0,NW,11.5,-,0.01,Rain-Thunderstorm,Light Rain,320,2013-04-10 09:35:00
4:55 AM,46.4,41.0,81,29.84,5.0,NW,12.7,20.7,0.03,Rain-Thunderstorm,Light Rain,310,2013-04-10 09:55:00
5:15 AM,44.6,41.0,87,29.85,8.0,NW,12.7,-,N/A,Thunderstorm,Overcast,320,2013-04-10 10:15:00
5:35 AM,44.6,41.0,87,29.88,9.0,WNW,9.2,18.4,N/A,,Overcast,300,2013-04-10 10:35:00
5:55 AM,44.6,41.0,87,29.86,9.0,NNW,9.2,17.3,N/A,Rain-Thunderstorm,Light Rain,340,2013-04-10 10:55:00
6:15 AM,44.6,41.0,87,29.85,10.0,North,8.1,-,0.01,,Overcast,350,2013-04-10 11:15:00
6:35 AM,44.6,41.0,87,29.84,10.0,North,8.1,-,0.01,Thunderstorm,Overcast,360,2013-04-10 11:35:00
6:55 AM,44.6,41.0,87,29.86,10.0,NW,8.1,-,0.01,,Overcast,310,2013-04-10 11:55:00
7:15 AM,44.6,41.0,87,29.87,10.0,WNW,8.1,-,N/A,Thunderstorm,Overcast,300,2013-04-10 12:15:00
7:35 AM,44.6,41.0,87,29.86,10.0,WNW,4.6,-,N/A,Thunderstorm,Overcast,300,2013-04-10 12:35:00
7:55 AM,44.6,41.0,87,29.88,10.0,WNW,11.5,16.1,N/A,Thunderstorm,Overcast,300,2013-04-10 12:55:00
8:15 AM,44.6,41.0,87,29.90,7.0,NW,15.0,18.4,N/A,Thunderstorm,Overcast,310,2013-04-10 13:15:00
8:35 AM,42.8,39.2,87,29.90,3.0,NW,15.0,21.9,N/A,Rain-Thunderstorm,Light Rain,310,2013-04-10 13:35:00
8:55 AM,41.0,39.2,93,29.92,7.0,NW,17.3,23.0,0.01,Rain,Light Rain,310,2013-04-10 13:55:00
9:15 AM,41.0,39.2,93,29.88,9.0,NNW,11.5,24.2,N/A,Thunderstorm,Overcast,340,2013-04-10 14:15:00
9:35 AM,41.0,39.2,93,29.90,6.0,NW,12.7,-,0.03,Rain-Thunderstorm,Light Rain,320,2013-04-10 14:35:00
9:55 AM,41.0,39.2,93,29.90,9.0,NW,9.2,-,0.03,,Overcast,320,2013-04-10 14:55:00
10:15 AM,41.0,39.2,93,29.90,9.0,NW,11.5,17.3,N/A,Thunderstorm,Overcast,320,2013-04-10 15:15:00
10:35 AM,41.0,39.2,93,29.91,3.0,NNW,13.8,19.6,0.04,Rain-Thunderstorm,Light Rain,330,2013-04-10 15:35:00
10:55 AM,41.0,39.2,93,29.91,6.0,NNW,6.9,17.3,0.06,Thunderstorm,Overcast,340,2013-04-10 15:55:00
11:15 AM,41.0,39.2,93,29.91,9.0,NNW,12.7,17.3,N/A,Thunderstorm,Mostly Cloudy,330,2013-04-10 16:15:00
11:35 AM,41.0,37.4,87,29.91,5.0,NNW,11.5,17.3,0.01,Rain,Light Rain,330,2013-04-10 16:35:00
11:55 AM,41.0,37.4,87,29.89,5.0,NNW,10.4,-,0.01,Thunderstorm,Overcast,330,2013-04-10 16:55:00
12:15 PM,41.0,37.4,87,29.90,3.0,NNW,15.0,-,0.01,Rain,Light Rain,330,2013-04-10 17:15:00
12:35 PM,41.0,37.4,87,29.92,1.8,WNW,15.0,19.6,0.01,Thunderstorm,Overcast,300,2013-04-10 17:35:00
12:55 PM,39.2,37.4,93,29.93,1.2,NW,15.0,20.7,0.02,Rain-Thunderstorm,Light Rain,310,2013-04-10 17:55:00
1:15 PM,39.2,37.4,93,29.91,3.0,WNW,17.3,24.2,0.01,Thunderstorm,Overcast,290,2013-04-10 18:15:00
1:35 PM,37.4,35.6,93,29.91,1.0,NW,15.0,-,0.17,Rain-Thunderstorm,Heavy Rain,320,2013-04-10 18:35:00
1:55 PM,39.2,37.4,93,29.88,4.0,NNW,12.7,18.4,0.19,Rain-Thunderstorm,Light Rain,330,2013-04-10 18:55:00
2:15 PM,39.2,37.4,93,29.92,7.0,West,17.3,21.9,N/A,Thunderstorm,Overcast,280,2013-04-10 19:15:00
2:35 PM,37.4,35.6,93,29.93,2.5,WNW,13.8,20.7,0.11,Rain-Thunderstorm,Light Thunderstorms and Rain,290,2013-04-10 19:35:00
2:55 PM,37.4,35.6,93,29.88,2.0,NW,12.7,21.9,0.23,Rain-Thunderstorm,Light Thunderstorms and Rain,320,2013-04-10 19:55:00
3:15 PM,39.2,37.4,93,29.99,6.0,West,16.1,26.5,0.04,Thunderstorm,Unknown,280,2013-04-10 20:15:00
3:35 PM,39.2,37.4,93,29.89,8.0,NW,15.0,20.7,0.17,Thunderstorm,Unknown,310,2013-04-10 20:35:00
3:55 PM,39.2,35.6,87,29.87,10.0,NW,10.4,-,0.17,Thunderstorm,Thunderstorm,320,2013-04-10 20:55:00
4:15 PM,39.2,37.4,93,29.84,10.0,NNW,12.7,19.6,N/A,Thunderstorm,Unknown,340,2013-04-10 21:15:00
4:35 PM,39.2,37.4,93,29.84,10.0,NNW,8.1,-,N/A,Thunderstorm,Unknown,330,2013-04-10 21:35:00
4:55 PM,39.2,37.4,93,29.86,8.0,NW,6.9,17.3,0.01,Rain,Light Rain,320,2013-04-10 21:55:00
5:15 PM,39.2,37.4,93,29.87,6.0,NW,9.2,20.7,0.01,Rain,Light Rain,310,2013-04-10 22:15:00
5:35 PM,39.2,35.6,87,29.89,10.0,NW,12.7,23.0,0.01,,Unknown,320,2013-04-10 22:35:00
5:55 PM,39.2,35.6,87,29.89,10.0,NW,10.4,20.7,0.02,,Unknown,310,2013-04-10 22:55:00
6:15 PM,39.2,35.6,87,29.89,10.0,NW,12.7,-,N/A,,Unknown,320,2013-04-10 23:15:00
6:35 PM,39.2,35.6,87,29.89,10.0,NW,11.5,17.3,N/A,,Unknown,310,2013-04-10 23:35:00
6:55 PM,39.2,35.6,87,29.89,10.0,NW,10.4,-,N/A,,Unknown,310,2013-04-10 23:55:00
7:15 PM,39.2,35.6,87,29.90,9.0,NW,10.4,-,N/A,,Unknown,310,2013-04-11 00:15:00
7:35 PM,39.2,35.6,87,29.92,7.0,NW,9.2,-,N/A,,Unknown,320,2013-04-11 00:35:00
7:55 PM,39.2,35.6,87,29.92,10.0,NW,11.5,17.3,N/A,,Unknown,320,2013-04-11 00:55:00
8:15 PM,39.2,35.6,87,29.91,10.0,NW,8.1,-,N/A,,Unknown,320,2013-04-11 01:15:00
8:35 PM,39.2,35.6,87,29.92,10.0,NW,10.4,-,N/A,,Unknown,320,2013-04-11 01:35:00
8:55 PM,39.2,35.6,87,29.93,10.0,NW,11.5,-,N/A,,Unknown,310,2013-04-11 01:55:00
9:15 PM,39.2,35.6,87,29.93,10.0,NW,12.7,20.7,N/A,,Unknown,310,2013-04-11 02:15:00
9:35 PM,39.2,35.6,87,29.94,10.0,WNW,12.7,20.7,N/A,,Unknown,300,2013-04-11 02:35:00
9:55 PM,39.2,33.8,81,29.95,10.0,NW,13.8,17.3,N/A,,Unknown,310,2013-04-11 02:55:00
10:15 PM,39.2,33.8,81,29.94,10.0,NW,15.0,20.7,N/A,,Unknown,320,2013-04-11 03:15:00
10:35 PM,37.4,32.0,81,29.93,10.0,NW,13.8,23.0,N/A,,Unknown,310,2013-04-11 03:35:00
10:55 PM,37.4,32.0,81,29.95,10.0,WNW,15.0,21.9,N/A,,Unknown,300,2013-04-11 03:55:00
11:15 PM,37.4,32.0,81,29.95,10.0,WNW,12.7,20.7,N/A,,Unknown,300,2013-04-11 04:15:00
11:35 PM,37.4,32.0,81,29.96,10.0,NW,15.0,21.9,N/A,,Unknown,310,2013-04-11 04:35:00
11:55 PM,37.4,32.0,81,29.96,10.0,NW,13.8,20.7,N/A,,Unknown,320,2013-04-11 04:55:00